Вернуться в каталог

STARLINK-36533

АктивенСвязьVLEO
NORAD 67643·PAYLOAD·🇺🇸 United States

Запущен Jan 30, 2026 с Cape Canaveral Space Force Station

Loading…

Ближайшие Пролёты (ближайшие 24 часа)

TLE

СвежийSource: CelesTrak SupGP

Эпоха: Sep 14, 2026, 21:10 UTC

1 67643C 26020AC  26257.88243056 -.00045427  00000+0 -16453-2 0  2575
2 67643  43.0009 151.1682 0001344 266.7832 321.3115 15.27601630    12

Отслеживайте STARLINK-36533 в реальном времени с AllMySat

Download on the App Store